Retour au catalogue

STARLINK-31710

ActifCommunicationsVLEO
NORAD 59378·PAYLOAD·🇺🇸 United States

Lancé Apr 2, 2024 depuis Vandenberg Space Force Base

Loading…

Prochains Passages (prochaines 24 heures)

TLE

FraisSource: CelesTrak SupGP

Époque: Sep 14, 2026, 22:14 UTC

1 59378C 24062E   26257.92687500  .00013711  00000+0  40516-3 0  2573
2 59378  53.1576  93.5285 0001182  83.1040 105.1093 15.34378627    17

Suivez STARLINK-31710 en temps réel avec AllMySat

Download on the App Store